TimeCST,TemperatureF,Dew PointF,Humidity,Sea Level PressureIn,VisibilityMPH,Wind Direction,Wind SpeedMPH,Gust SpeedMPH,PrecipitationIn,Events,Conditions,WindDirDegrees,DateUTC
12:53 AM,53.1,51.1,93,30.18,6.0,SSE,3.5,-,N/A,,Clear,160,2011-11-25 06:53:00
1:53 AM,53.6,51.8,94,30.16,5.0,SE,6.9,-,N/A,,Clear,140,2011-11-25 07:53:00
2:53 AM,53.1,51.1,93,30.14,4.0,SE,5.8,-,N/A,,Clear,140,2011-11-25 08:53:00
3:53 AM,53.1,51.1,93,30.13,6.0,ESE,4.6,-,N/A,,Clear,120,2011-11-25 09:53:00
4:53 AM,52.0,50.0,93,30.11,4.0,ESE,3.5,-,N/A,,Clear,110,2011-11-25 10:53:00
5:53 AM,51.8,48.2,88,30.12,5.0,East,3.5,-,N/A,,Partly Cloudy,80,2011-11-25 11:53:00
6:53 AM,51.1,50.0,96,30.11,5.0,East,4.6,-,N/A,,Clear,100,2011-11-25 12:53:00
7:26 AM,51.8,50.0,94,30.11,2.5,East,3.5,-,N/A,,Clear,80,2011-11-25 13:26:00
7:33 AM,51.8,51.8,100,30.12,3.0,Calm,Calm,-,N/A,,Partly Cloudy,0,2011-11-25 13:33:00
7:53 AM,54.0,52.0,93,30.12,3.0,East,3.5,-,N/A,,Partly Cloudy,90,2011-11-25 13:53:00
8:53 AM,60.1,55.9,86,30.10,7.0,ESE,8.1,-,N/A,,Clear,110,2011-11-25 14:53:00
9:53 AM,66.0,57.9,75,30.09,10.0,SE,12.7,-,N/A,,Clear,140,2011-11-25 15:53:00
10:53 AM,71.1,57.0,61,30.07,10.0,SE,13.8,23.0,N/A,,Clear,130,2011-11-25 16:53:00
11:53 AM,73.4,55.4,53,30.04,10.0,SSE,18.4,24.2,N/A,,Partly Cloudy,150,2011-11-25 17:53:00
12:53 PM,75.2,55.4,50,30.00,10.0,SSE,21.9,28.8,N/A,,Partly Cloudy,160,2011-11-25 18:53:00
1:53 PM,78.1,55.0,45,29.94,10.0,SSE,16.1,-,N/A,,Mostly Cloudy,150,2011-11-25 19:53:00
2:53 PM,77.0,55.0,47,29.91,10.0,SSE,15.0,25.3,N/A,,Mostly Cloudy,150,2011-11-25 20:53:00
3:53 PM,75.9,53.1,45,29.91,10.0,SSE,17.3,-,N/A,,Mostly Cloudy,150,2011-11-25 21:53:00
4:53 PM,73.9,54.0,50,29.90,10.0,SE,13.8,-,N/A,,Mostly Cloudy,140,2011-11-25 22:53:00
5:53 PM,71.6,53.6,53,29.90,10.0,SE,12.7,-,N/A,,Overcast,140,2011-11-25 23:53:00
6:53 PM,70.0,54.0,57,29.91,10.0,SE,9.2,-,N/A,,Mostly Cloudy,140,2011-11-26 00:53:00
7:53 PM,68.0,55.0,63,29.91,10.0,SE,10.4,-,N/A,,Scattered Clouds,140,2011-11-26 01:53:00
8:53 PM,68.0,57.2,68,29.95,10.0,SSE,6.9,-,N/A,,Overcast,150,2011-11-26 02:53:00
9:53 PM,66.0,57.9,75,29.95,10.0,ESE,4.6,-,N/A,,Mostly Cloudy,110,2011-11-26 03:53:00
10:53 PM,66.2,59.0,78,29.96,10.0,SE,4.6,-,N/A,,Overcast,130,2011-11-26 04:53:00
11:53 PM,66.2,59.0,78,29.95,10.0,SE,5.8,-,N/A,,Overcast,130,2011-11-26 05:53:00